Temp
92 92 92 92 90 92 92 91 92 92 93 92 93 94 95 95 93 92 91 89 88 87 88 88 88 88 88 89 89 89 90 89 90 90 90 90 91 88 89 91 91 90 92 92 91 91 92 92 93 94 93 93 92 91 90 90 90 92 91 91 90 91 91
90 91 92 93 91 92 92 92 93 94 94 93 92 93 94 95 94 93 91 89 89 88 88 88 88 88 88 88 89 89 89 89 90 90 91 89 90 90 92 92 91 90 90 92 92 92 92 93 93 92 92 92 92 91 91 91 90 91 92 90 91 90 91
89 90 90 91 91 92 92 93 93 94 93 94 94 94 94 92 94 92 91 91 89 89 90 89 88 89 89 89 89 88 89 90 90 91 91 92 91 94 92 92 92 92 93 93 92 93 93 93 92 92 92 92 94 91 91 91 90 91 91 90 91 91 89
86 87 88 91 92 92 92 92 92 94 95 95 95 95 95 92 95 94 93 92 91 90 89 91 90 90 90 89 89 89 89 89 91 92 93 94 93 94 92 92 91 94 93 93 95 94 97 93 92 91 91 91 92 92 92 92 93 92 92 90 91 91 90
87 88 88 87 89 90 91 91 91 92 94 96 96 95 95 95 96 96 96 95 95 92 93 93 95 92 91 91 93 93 90 91 91 92 93 94 92 92 92 93 93 94 93 95 93 92 91 91 92 91 91 91 92 92 91 92 92 91 91 91 90 92 92
87 87 86 86 86 89 92 93 94 94 95 96 96 96 97 98 98 98 98 96 96 96 94 93 94 92 91 93 92 93 92 91 91 90 92 92 92 94 93 93 95 94 95 94 95 94 93 93 93 93 93 94 93 95 94 93 93 93 92 90 90 92 93
85 85 85 87 87 86 89 91 94 94 96 97 96 97 99 99 98 98 98 97 98 95 95 95 96 95 92 93 92 91 91 92 91 92 93 94 93 93 93 93 94 95 96 94 95 95 94 92 93 93 93 94 93 95 92 91 92 93 91 90 89 90 90
84 85 87 87 88 87 87 89 93 96 96 98 96 94 97 99 99 99 98 95 95 94 95 97 96 94 92 93 93 93 92 93 93 93 93 94 94 93 94 94 93 94 94 95 94 95 95 94 95 94 93 94 93 92 94 91 90 94 93 90 89 90 94
85 85 84 85 87 88 87 86 88 92 93 95 95 95 97 97 97 97 98 95 94 93 92 95 94 95 93 93 93 92 94 94 93 93 93 94 95 95 97 95 95 95 94 96 96 95 95 95 96 93 92 92 92 91 92 91 91 92 92 91 90 90 92
85 84 85 84 85 89 88 88 89 89 89 89 92 93 95 96 97 97 94 94 95 92 93 97 94 93 91 91 93 94 94 93 94 95 95 95 95 96 97 98 96 93 95 95 97 95 94 95 95 94 91 92 91 90 90 90 92 92 93 91 91 90 89
81 82 82 84 84 88 87 87 86 85 88 88 90 92 93 94 95 96 92 92 93 92 93 93 93 93 91 91 91 92 93 94 95 95 94 95 96 96 97 97 95 94 95 93 95 96 94 94 94 92 91 94 92 91 90 91 92 91 92 93 93 92 92
80 80 79 81 83 84 86 85 85 85 86 87 89 90 90 90 91 93 92 92 92 91 91 91 93 93 91 91 91 90 91 93 95 95 95 96 97 98 97 97 95 89 93 95 94 97 96 94 95 94 91 92 93 92 91 91 91 90 91 93 94 93 93
81 79 79 79 80 81 82 82 82 82 82 84 86 88 89 89 89 90 90 90 91 91 90 90 91 90 90 92 91 90 90 91 92 94 97 96 97 99 98 98 98 97 93 90 93 97 98 98 95 94 94 92 94 95 92 91 91 90 89 92 91 92 93
80 82 82 80 80 80 80 81 82 82 82 82 81 83 85 88 89 88 88 89 89 89 89 90 90 89 89 89 90 89 90 90 92 94 94 95 93 95 98 100 99 97 96 95 95 96 97 98 97 95 96 93 94 93 92 92 91 91 88 90 92 85 85
80 81 82 82 81 81 82 82 82 83 83 83 83 82 82 83 85 86 87 88 88 89 89 89 89 88 88 88 88 88 89 91 91 92 92 94 93 93 95 97 97 97 97 95 96 99 98 97 97 96 95 94 91 93 95 96 94 94 91 89 90 91 86
78 78 80 83 83 83 83 84 83 83 83 83 83 82 81 82 83 84 84 85 85 85 87 87 87 86 86 86 87 88 89 89 90 89 90 91 92 91 93 94 95 97 96 96 96 95 95 96 96 97 96 95 92 91 96 95 94 84 82 85 91 91 90
79 80 80 82 82 83 82 83 83 84 83 83 83 83 83 82 82 83 85 85 84 84 84 85 85 85 85 85 87 87 87 87 88 88 87 88 89 89 89 90 92 93 93 92 93 92 92 93 94 95 96 96 95 94 95 95 81 70 69 72 76 89 89
78 78 79 80 81 81 81 81 81 81 81 82 83 83 83 83 83 84 84 85 85 84 84 83 82 83 84 85 85 86 86 86 86 85 85 86 87 87 88 88 88 89 89 90 92 90 93 93 92 93 95 95 95 95 93 81 67 64 66 68 68 76 87
79 78 77 76 76 77 79 79 80 80 81 83 82 81 82 83 83 83 84 84 85 85 83 83 81 81 82 83 85 85 84 85 85 84 84 84 85 85 83 86 86 87 87 88 90 91 89 90 92 91 93 94 93 95 91 81 64 63 64 66 65 67 77
80 78 76 76 76 77 76 76 77 77 79 80 82 83 83 81 81 82 82 82 82 83 83 83 83 83 83 82 83 84 83 83 82 82 83 83 82 78 84 84 85 86 87 87 87 88 89 91 90 91 90 91 92 90 83 78 64 61 62 64 64 65 71
79 76 74 72 73 74 74 74 75 76 78 81 82 82 82 83 83 80 79 79 80 82 82 83 83 83 83 83 83 83 83 82 75 77 78 80 82 80 82 80 81 84 85 86 87 87 87 89 89 90 90 92 93 90 82 73 58 60 60 61 62 63 70
78 78 75 74 72 72 73 74 76 77 78 80 82 83 82 81 81 80 79 80 80 80 80 81 81 81 82 81 81 81 81 80 80 80 79 80 82 82 80 80 81 81 80 81 83 86 88 88 89 88 89 90 91 87 81 75 56 58 58 59 60 62 80
81 75 74 74 75 74 75 76 77 77 78 80 83 83 82 82 82 80 79 79 79 78 78 79 78 78 78 77 77 75 75 74 74 76 76 79 80 80 79 78 77 76 76 76 76 78 79 80 80 76 78 81 80 78 77 75 60 55 56 58 56 70 85
82 79 77 76 76 75 75 76 78 79 81 79 80 81 82 83 81 79 77 77 77 76 76 75 76 77 76 76 76 75 74 74 75 75 76 77 77 77 77 76 76 76 77 75 75 74 75 72 73 74 77 78 79 80 78 75 62 54 54 56 55 68 81
79 80 79 78 77 76 76 77 77 79 79 80 79 79 81 81 80 79 76 76 76 76 75 75 76 76 76 76 77 78 77 77 76 75 75 74 75 75 74 74 75 74 74 72 72 72 73 73 71 71 72 75 77 76 76 74 67 56 54 54 55 67 82
75 77 77 77 77 77 77 77 77 78 78 78 77 79 80 80 79 78 77 77 77 75 73 73 74 75 76 77 77 78 78 77 76 75 74 73 72 72 72 74 74 73 71 70 70 70 72 72 71 70 69 71 72 72 73 71 69 61 53 53 56 57 76
76 77 76 77 77 77 78 79 78 78 78 77 78 79 79 79 78 77 76 75 74 73 74 75 75 75 76 77 79 79 78 77 76 74 73 71 70 70 70 70 69 69 69 69 69 69 70 70 68 67 67 68 68 69 70 70 69 65 54 54 55 56 66
77 78 79 78 78 79 80 80 79 80 81 81 81 79 78 77 75 75 74 73 73 74 77 76 76 76 76 76 76 77 77 77 75 74 72 72 72 71 70 71 71 70 70 69 68 68 67 68 67 66 65 65 66 67 67 68 68 67 60 55 54 54 57
74 76 77 77 78 80 80 79 79 81 82 84 83 80 79 78 75 74 73 71 73 77 77 78 77 77 76 74 73 71 72 74 76 77 78 75 73 73 72 72 72 71 71 70 69 68 67 68 68 67 65 65 65 66 65 66 67 65 66 58 54 53 56
73 76 78 81 82 81 80 77 77 78 79 79 78 77 77 77 74 74 74 73 77 78 77 76 76 76 75 74 73 74 74 75 76 78 77 76 74 72 72 72 73 73 72 72 71 70 69 68 69 69 68 67 67 67 67 67 66 67 66 64 57 55 54
73 75 75 76 77 77 77 75 74 76 75 75 76 76 76 76 74 73 72 74 77 76 76 76 76 75 75 75 75 75 75 74 75 75 75 76 76 74 73 73 74 73 74 74 72 71 71 71 72 70 69 68 67 67 69 70 70 70 69 68 65 58 57
72 74 76 77 76 77 76 75 72 70 71 73 75 75 75 75 75 73 73 77 77 78 77 77 76 75 76 77 78 77 77 77 77 77 76 75 75 74 74 74 74 74 74 74 73 72 72 71 70 69 69 68 68 67 67 68 69 69 71 72 72 69 63
69 70 70 71 73 74 75 74 74 72 72 71 74 75 75 75 75 74 76 76 78 78 77 76 76 75 75 75 76 76 79 78 78 77 75 75 75 74 74 75 74 72 72 72 71 70 73 74 72 71 72 71 71 72 72 72 73 73 74 73 74 75 74
65 65 67 71 72 73 72 72 71 72 72 72 73 75 76 76 76 76 77 78 80 79 77 75 75 76 76 78 79 79 80 78 76 77 78 78 78 77 76 75 76 72 67 65 68 73 72 73 74 73 74 74 74 74 74 74 74 71 69 68 68 71 74
65 65 65 66 68 70 70 70 70 70 71 72 73 74 75 76 78 78 77 78 79 76 76 75 76 76 77 77 78 77 77 78 79 80 78 75 71 67 64 66 74 70 65 62 61 63 68 73 69 71 76 71 69 71 74 73 68 64 54 55 50 55 64
66 66 65 65 65 65 67 69 69 69 70 71 73 73 72 75 76 77 79 77 77 77 75 75 75 76 76 77 76 76 77 78 79 78 77 77 73 70 66 55 47 55 66 64 54 47 47 53 60 61 69 69 64 63 66 65 60 49 45 43 43 44 44
65 64 64 64 62 62 64 66 68 69 69 70 71 71 71 71 72 73 75 76 77 76 75 75 74 75 76 75 74 75 77 77 76 76 75 74 72 70 68 66 61 45 44 51 50 47 43 43 44 46 50 62 65 56 48 48 46 43 42 44 44 42 41
66 65 65 64 62 60 60 61 64 66 67 69 70 71 72 72 72 72 75 74 75 76 75 75 74 74 75 75 73 73 75 76 75 74 73 72 72 71 70 69 65 63 47 43 46 46 43 42 43 44 44 45 52 63 62 50 43 42 44 44 42 42 41
MSLP
1011.08 1011.40 1011.56 1011.60 1012.20 1012.28 1012.68 1012.88 1012.92 1013.04 1013.32 1013.68 1013.88 1013.92 1014.08 1014.16 1014.48 1014.84 1015.40 1015.92 1016.36 1016.76 1016.84 1017.00 1017.20 1017.36 1017.64 1017.76 1017.84 1017.92 1017.96 1018.12 1018.20 1018.52 1018.68 1018.72 1018.60 1019.08 1019.12 1019.04 1019.28 1019.32 1019.16 1019.44 1019.44 1019.44 1019.32 1019.12 1019.28 1019.28 1019.44 1019.68 1019.76 1019.96 1020.08 1020.12 1020.24 1020.16 1020.24 1020.24 1020.40 1020.32 1020.48
1011.28 1011.32 1011.48 1011.48 1011.96 1012.16 1012.32 1012.52 1012.68 1012.72 1013.08 1013.36 1013.76 1013.84 1013.92 1014.08 1014.36 1014.80 1015.24 1015.68 1016.00 1016.40 1016.64 1016.88 1017.12 1017.28 1017.44 1017.56 1017.64 1017.84 1018.04 1018.08 1018.08 1018.24 1018.32 1018.56 1018.56 1018.64 1018.56 1018.76 1018.88 1019.20 1019.16 1019.00 1019.12 1019.04 1019.12 1019.28 1019.24 1019.40 1019.56 1019.64 1019.72 1019.80 1019.96 1020.08 1020.16 1020.20 1020.12 1020.32 1020.44 1020.52 1020.40
1011.12 1011.12 1011.36 1011.52 1011.80 1012.00 1012.12 1012.32 1012.48 1012.44 1012.84 1013.16 1013.44 1013.72 1013.80 1014.08 1014.20 1014.60 1015.00 1015.56 1015.96 1016.12 1016.28 1016.64 1016.88 1017.08 1017.12 1017.36 1017.64 1017.88 1017.92 1017.96 1018.08 1018.24 1018.36 1018.44 1018.56 1018.40 1018.44 1018.56 1018.76 1018.84 1018.84 1018.80 1018.84 1019.04 1019.00 1019.16 1019.24 1019.32 1019.44 1019.56 1019.48 1019.84 1019.80 1019.96 1020.04 1020.12 1020.12 1020.28 1020.40 1020.44 1020.64
1011.04 1011.16 1011.32 1011.24 1011.36 1011.52 1011.80 1012.08 1012.44 1012.36 1012.48 1012.72 1013.00 1013.24 1013.48 1013.92 1013.92 1014.24 1014.60 1015.20 1015.64 1015.96 1016.36 1016.40 1016.68 1016.88 1017.04 1017.28 1017.52 1017.76 1017.92 1017.92 1017.84 1017.88 1017.92 1017.84 1018.16 1018.12 1018.32 1018.56 1018.60 1018.44 1018.76 1018.80 1018.64 1018.80 1018.68 1019.00 1019.32 1019.40 1019.48 1019.56 1019.52 1019.60 1019.64 1019.80 1019.80 1019.96 1020.04 1020.24 1020.32 1020.28 1020.48
1011.08 1010.96 1011.24 1011.48 1011.52 1011.68 1011.72 1012.20 1012.52 1012.44 1012.36 1012.28 1012.48 1012.84 1013.08 1013.48 1013.72 1014.00 1014.32 1014.56 1014.96 1015.56 1015.72 1015.88 1016.08 1016.48 1016.72 1016.92 1017.08 1017.24 1017.56 1017.68 1017.76 1017.68 1017.72 1017.56 1017.68 1017.92 1018.24 1018.36 1018.44 1018.48 1018.48 1018.52 1018.52 1018.88 1018.96 1019.08 1019.20 1019.36 1019.52 1019.56 1019.60 1019.56 1019.72 1019.68 1019.76 1019.84 1020.00 1020.12 1020.36 1020.16 1020.32
1011.16 1011.16 1011.44 1011.48 1011.60 1011.56 1011.52 1011.80 1012.04 1012.16 1012.16 1012.36 1012.56 1012.80 1012.84 1013.08 1013.32 1013.64 1013.84 1014.28 1014.56 1014.80 1015.12 1015.48 1015.72 1016.16 1016.68 1016.68 1016.88 1017.00 1017.16 1017.36 1017.48 1017.56 1017.64 1017.72 1017.92 1017.92 1018.12 1018.12 1018.12 1018.28 1018.36 1018.40 1018.24 1018.52 1018.84 1019.00 1018.96 1019.16 1019.36 1019.40 1019.44 1019.36 1019.44 1019.64 1019.60 1019.68 1019.88 1020.04 1020.16 1020.08 1020.12
1011.88 1011.72 1011.76 1011.56 1011.48 1011.60 1011.44 1011.44 1011.56 1011.76 1011.76 1011.80 1012.08 1012.36 1012.40 1012.60 1013.04 1013.16 1013.44 1013.96 1014.20 1014.76 1015.04 1015.36 1015.36 1015.64 1016.16 1016.24 1016.68 1016.88 1017.32 1017.28 1017.40 1017.48 1017.48 1017.56 1017.64 1017.80 1017.84 1017.96 1017.88 1018.00 1017.80 1018.08 1018.16 1018.20 1018.60 1018.92 1018.88 1019.00 1019.12 1019.08 1019.16 1019.20 1019.40 1019.60 1019.60 1019.52 1019.68 1020.00 1020.20 1020.20 1020.16
1012.12 1011.76 1011.40 1011.36 1011.56 1011.68 1011.60 1011.56 1011.44 1011.48 1011.48 1011.52 1012.08 1012.52 1012.56 1012.40 1012.64 1012.92 1013.40 1013.72 1014.08 1014.32 1014.64 1014.96 1015.24 1015.44 1015.84 1015.96 1016.28 1016.64 1016.92 1017.00 1017.08 1017.16 1017.20 1017.44 1017.48 1017.72 1017.64 1017.72 1017.92 1017.72 1017.80 1018.00 1018.12 1018.04 1018.28 1018.52 1018.56 1018.72 1018.92 1019.08 1019.20 1019.24 1019.24 1019.44 1019.68 1019.52 1019.56 1019.96 1020.20 1020.24 1019.96
1011.16 1011.40 1011.64 1011.84 1011.60 1011.76 1011.96 1012.24 1011.92 1011.52 1011.64 1011.72 1012.04 1012.40 1012.52 1012.56 1012.64 1012.84 1013.16 1013.72 1014.16 1014.40 1014.68 1014.44 1014.80 1015.00 1015.44 1015.84 1016.16 1016.44 1016.52 1016.68 1016.96 1017.08 1017.24 1017.28 1017.32 1017.52 1017.28 1017.48 1017.52 1017.48 1017.84 1017.76 1017.80 1017.92 1017.96 1018.24 1018.28 1018.60 1018.80 1019.00 1019.12 1019.32 1019.36 1019.44 1019.56 1019.44 1019.56 1019.76 1020.00 1020.20 1020.04
1011.04 1011.48 1011.52 1011.96 1011.76 1011.28 1011.60 1011.84 1011.92 1011.96 1012.04 1012.24 1012.24 1012.52 1012.56 1012.52 1012.48 1012.76 1013.20 1013.60 1014.00 1014.48 1014.60 1014.48 1014.64 1014.96 1015.36 1015.76 1016.00 1016.08 1016.28 1016.60 1016.64 1016.80 1017.00 1017.24 1017.08 1017.08 1016.92 1016.84 1017.20 1017.52 1017.56 1017.68 1017.40 1017.84 1017.92 1017.96 1018.04 1018.40 1018.84 1019.04 1019.16 1019.32 1019.40 1019.44 1019.48 1019.44 1019.40 1019.64 1019.80 1019.92 1020.08
1011.68 1011.84 1012.04 1012.04 1012.04 1011.48 1011.68 1011.84 1012.16 1012.48 1012.24 1012.32 1012.36 1012.52 1012.60 1012.56 1012.60 1012.80 1013.40 1013.56 1014.04 1014.36 1014.40 1014.40 1014.40 1014.84 1015.28 1015.68 1016.00 1016.08 1016.16 1016.32 1016.36 1016.64 1016.80 1016.88 1016.80 1016.88 1016.76 1016.76 1017.16 1017.40 1017.48 1017.88 1017.56 1017.32 1017.96 1017.92 1017.96 1018.32 1018.72 1018.96 1019.04 1019.20 1019.32 1019.28 1019.32 1019.44 1019.40 1019.24 1019.28 1019.52 1019.64
1011.92 1012.12 1012.52 1012.36 1012.12 1012.08 1011.96 1012.16 1012.36 1012.44 1012.24 1012.24 1012.44 1012.60 1012.80 1012.80 1012.84 1012.88 1013.28 1013.60 1013.72 1014.28 1014.48 1014.52 1014.44 1014.92 1015.36 1015.68 1015.92 1016.12 1016.16 1016.16 1016.16 1016.32 1016.44 1016.52 1016.40 1016.40 1016.52 1016.64 1017.08 1017.92 1017.48 1017.48 1017.64 1017.08 1017.40 1017.80 1018.00 1018.20 1018.68 1018.64 1018.64 1018.76 1019.00 1019.04 1019.08 1019.24 1019.36 1019.28 1019.08 1019.20 1019.28
1011.80 1012.24 1012.52 1012.68 1012.56 1012.52 1012.48 1012.76 1012.96 1012.96 1012.96 1012.84 1013.00 1013.00 1013.00 1013.12 1013.28 1013.24 1013.52 1013.76 1013.80 1014.04 1014.36 1014.48 1014.64 1015.00 1015.36 1015.56 1015.84 1016.04 1016.20 1016.20 1016.16 1016.00 1016.00 1016.20 1016.08 1015.84 1015.92 1016.24 1016.52 1016.92 1017.60 1017.88 1017.60 1017.28 1017.20 1017.32 1017.80 1017.92 1018.16 1018.44 1018.40 1018.40 1018.64 1018.88 1018.92 1019.12 1019.40 1019.16 1019.24 1019.16 1019.12
1011.56 1011.84 1012.08 1012.40 1012.64 1012.80 1013.00 1013.00 1013.04 1013.20 1013.28 1013.44 1013.76 1013.72 1013.68 1013.48 1013.44 1013.64 1013.84 1014.00 1014.08 1014.20 1014.48 1014.52 1014.76 1015.08 1015.36 1015.56 1015.72 1016.00 1016.04 1016.00 1015.96 1015.88 1015.80 1015.84 1016.00 1015.92 1015.68 1015.76 1015.96 1016.28 1016.64 1017.00 1017.20 1017.28 1017.24 1017.16 1017.32 1017.68 1017.72 1018.16 1018.20 1018.12 1018.16 1018.48 1018.80 1018.88 1019.20 1019.00 1018.96 1019.88 1020.08
1012.16 1012.12 1012.08 1012.24 1012.60 1012.52 1012.64 1012.96 1013.08 1013.12 1013.24 1013.44 1013.72 1014.04 1014.16 1014.16 1014.12 1014.04 1014.12 1014.12 1014.20 1014.36 1014.52 1014.56 1014.84 1015.24 1015.48 1015.60 1015.76 1015.80 1015.80 1015.76 1015.80 1015.80 1015.84 1015.88 1016.04 1016.20 1016.08 1015.84 1015.88 1016.00 1016.24 1016.56 1016.76 1016.72 1016.84 1017.04 1017.12 1017.16 1017.32 1017.60 1018.28 1018.20 1017.92 1018.00 1018.32 1018.40 1018.84 1019.16 1019.08 1019.08 1019.52
1012.56 1012.52 1012.40 1012.12 1012.12 1012.20 1012.28 1012.40 1012.64 1013.00 1013.08 1013.32 1013.52 1013.88 1014.24 1014.36 1014.40 1014.44 1014.60 1014.68 1014.64 1014.72 1014.64 1014.76 1015.08 1015.36 1015.56 1015.76 1015.72 1015.60 1015.64 1015.68 1015.76 1015.92 1016.00 1016.08 1016.20 1016.36 1016.32 1016.24 1016.20 1016.24 1016.44 1016.60 1016.72 1016.72 1016.72 1016.76 1016.96 1017.08 1017.24 1017.52 1017.92 1018.28 1017.84 1017.88 1018.08 1018.60 1018.80 1018.72 1018.72 1018.92 1019.28
1012.40 1012.20 1012.20 1012.12 1012.12 1012.24 1012.44 1012.60 1012.68 1012.88 1013.16 1013.40 1013.56 1013.72 1013.96 1014.20 1014.32 1014.32 1014.36 1014.52 1014.80 1014.96 1014.84 1014.88 1015.28 1015.44 1015.56 1015.76 1015.56 1015.56 1015.64 1015.80 1015.92 1015.92 1016.20 1016.20 1016.24 1016.36 1016.48 1016.48 1016.44 1016.44 1016.60 1016.84 1016.96 1017.04 1017.08 1017.12 1017.28 1017.28 1017.20 1017.36 1017.56 1017.88 1017.76 1017.76 1018.84 1019.12 1019.04 1019.04 1019.00 1018.92 1019.20
1012.48 1012.48 1012.48 1012.48 1012.48 1012.48 1012.80 1013.00 1013.16 1013.40 1013.56 1013.52 1013.52 1013.60 1013.72 1014.04 1014.12 1014.12 1014.36 1014.40 1014.72 1015.04 1015.00 1015.08 1015.24 1015.52 1015.64 1015.56 1015.56 1015.60 1015.76 1015.84 1015.92 1016.16 1016.28 1016.28 1016.36 1016.40 1016.52 1016.60 1016.76 1016.88 1017.00 1017.00 1017.08 1017.16 1017.04 1017.20 1017.32 1017.32 1017.24 1017.28 1017.36 1017.56 1017.88 1018.92 1019.44 1019.36 1019.32 1019.28 1019.28 1019.28 1019.12
1012.36 1012.76 1013.16 1013.28 1013.36 1013.24 1013.20 1013.36 1013.36 1013.52 1013.64 1013.56 1013.84 1014.04 1014.00 1013.88 1014.04 1014.24 1014.16 1014.36 1014.36 1014.56 1015.04 1015.20 1015.36 1015.60 1015.76 1015.68 1015.64 1015.76 1015.88 1015.92 1016.08 1016.24 1016.40 1016.48 1016.32 1016.36 1016.96 1016.72 1016.96 1017.08 1017.20 1017.28 1017.00 1016.96 1017.24 1017.28 1017.28 1017.40 1017.24 1017.12 1017.24 1017.36 1018.08 1019.08 1019.76 1019.76 1019.72 1019.64 1019.56 1019.60 1019.52
1012.24 1012.92 1013.36 1013.44 1013.56 1013.56 1013.80 1013.92 1014.00 1014.08 1014.00 1013.96 1013.84 1013.84 1013.88 1014.32 1014.40 1014.36 1014.32 1014.56 1014.60 1014.72 1014.88 1015.00 1015.08 1015.32 1015.52 1015.76 1015.88 1015.88 1015.96 1016.04 1016.24 1016.48 1016.44 1016.40 1016.56 1017.12 1016.64 1016.84 1017.12 1017.12 1017.08 1017.16 1017.20 1017.32 1017.36 1017.20 1017.24 1017.16 1017.32 1017.32 1017.36 1017.80 1018.80 1019.40 1020.08 1020.04 1020.04 1019.96 1019.84 1019.68 1019.76
1012.40 1013.16 1013.80 1014.20 1014.20 1014.12 1014.24 1014.48 1014.60 1014.48 1014.40 1014.12 1013.96 1014.04 1014.12 1014.32 1014.36 1014.84 1015.04 1015.12 1015.08 1014.92 1015.00 1014.96 1015.00 1015.24 1015.36 1015.64 1015.84 1015.96 1016.08 1016.28 1017.40 1017.40 1017.24 1017.00 1016.72 1017.04 1017.20 1017.56 1017.72 1017.40 1017.40 1017.36 1017.40 1017.48 1017.48 1017.28 1017.20 1017.12 1017.16 1017.16 1017.20 1017.88 1019.08 1020.04 1020.24 1020.16 1020.08 1019.96 1019.84 1019.80 1019.76
1012.80 1013.00 1013.80 1014.32 1014.60 1014.72 1014.72 1014.80 1014.72 1014.60 1014.48 1014.20 1014.16 1014.24 1014.40 1014.80 1014.76 1015.08 1015.32 1015.16 1015.24 1015.12 1015.04 1015.08 1015.24 1015.44 1015.52 1015.80 1016.00 1016.16 1016.32 1016.48 1016.76 1017.00 1017.28 1017.24 1017.12 1017.28 1017.68 1017.72 1017.72 1017.88 1017.80 1017.76 1017.64 1017.28 1017.04 1017.00 1016.96 1017.08 1017.20 1017.12 1017.20 1017.88 1019.04 1019.84 1020.24 1020.16 1020.08 1020.08 1019.96 1019.88 1019.48
1012.56 1013.56 1014.04 1014.40 1014.52 1014.68 1014.64 1014.56 1014.64 1014.68 1014.48 1014.28 1014.08 1014.16 1014.40 1014.52 1014.72 1015.00 1015.16 1015.36 1015.32 1015.36 1015.44 1015.44 1015.64 1015.80 1015.96 1016.28 1016.44 1016.76 1016.72 1016.80 1017.20 1017.28 1017.64 1017.56 1017.56 1017.68 1017.92 1018.00 1018.24 1018.36 1018.20 1018.32 1018.24 1018.04 1017.84 1018.00 1018.00 1018.52 1018.68 1018.28 1018.12 1018.72 1019.28 1019.88 1020.44 1020.36 1020.28 1020.20 1020.08 1019.68 1019.12
1012.64 1013.40 1013.92 1014.32 1014.60 1014.80 1014.88 1014.76 1014.68 1014.56 1014.56 1014.72 1014.64 1014.56 1014.40 1014.52 1015.00 1015.28 1015.60 1015.72 1015.72 1015.80 1015.96 1016.04 1016.04 1015.96 1016.16 1016.48 1016.60 1016.92 1017.12 1016.96 1017.00 1017.16 1017.24 1017.36 1017.68 1017.88 1018.04 1018.16 1018.28 1018.36 1018.16 1018.36 1018.48 1018.56 1018.44 1018.88 1019.32 1019.36 1019.28 1019.08 1018.88 1018.92 1019.56 1020.16 1020.72 1020.68 1020.48 1020.32 1020.16 1019.88 1019.48
1013.44 1013.56 1013.96 1014.24 1014.68 1015.04 1014.92 1014.92 1014.76 1014.72 1014.80 1014.92 1015.20 1015.04 1014.72 1014.76 1015.00 1015.44 1015.96 1015.92 1015.88 1015.92 1016.16 1016.20 1016.24 1016.28 1016.32 1016.40 1016.40 1016.56 1016.64 1016.80 1017.00 1017.20 1017.36 1017.60 1017.72 1017.92 1018.24 1018.44 1018.68 1018.84 1018.64 1018.60 1018.60 1018.76 1018.76 1019.12 1019.84 1019.84 1019.60 1019.48 1019.60 1019.76 1020.00 1020.48 1020.84 1020.96 1020.84 1020.56 1020.40 1020.00 1019.48
1014.32 1014.28 1014.48 1014.56 1014.64 1014.72 1014.84 1014.80 1014.96 1015.08 1015.32 1015.48 1015.52 1015.20 1015.24 1015.24 1015.40 1015.68 1015.88 1015.92 1015.88 1016.32 1016.64 1016.72 1016.60 1016.40 1016.32 1016.40 1016.44 1016.48 1016.56 1016.76 1017.08 1017.28 1017.48 1017.76 1018.00 1018.24 1018.48 1018.56 1018.76 1019.04 1019.12 1019.12 1019.08 1019.20 1019.28 1019.40 1019.88 1020.28 1020.12 1019.92 1020.20 1020.56 1020.68 1020.88 1021.08 1021.32 1021.20 1020.88 1020.56 1020.32 1019.80
1014.48 1014.44 1014.76 1014.92 1014.96 1014.64 1014.80 1014.88 1015.08 1015.48 1015.68 1015.80 1015.60 1015.52 1015.60 1015.72 1015.92 1016.12 1016.16 1016.20 1016.52 1016.84 1016.80 1016.68 1016.60 1016.52 1016.48 1016.44 1016.52 1016.68 1016.84 1017.00 1017.32 1017.64 1017.88 1018.16 1018.44 1018.64 1018.84 1019.04 1019.36 1019.48 1019.44 1019.52 1019.52 1019.60 1019.80 1019.92 1020.32 1020.60 1020.64 1020.60 1020.80 1020.96 1021.04 1021.00 1021.08 1021.40 1021.48 1021.32 1021.12 1020.84 1020.48
1014.56 1014.60 1014.64 1014.60 1014.64 1014.56 1014.72 1014.96 1015.24 1015.28 1015.40 1015.44 1015.60 1015.76 1016.04 1016.20 1016.56 1016.68 1016.76 1016.84 1017.08 1016.92 1016.60 1016.68 1016.88 1016.84 1016.92 1017.00 1017.12 1017.20 1017.28 1017.44 1017.56 1017.76 1018.00 1018.20 1018.44 1018.80 1019.08 1019.32 1019.52 1019.68 1019.76 1019.80 1019.88 1020.04 1020.20 1020.24 1020.44 1020.80 1021.08 1021.16 1021.16 1021.24 1021.32 1021.28 1021.36 1021.60 1021.80 1021.72 1021.60 1021.48 1021.32
1015.20 1015.20 1015.24 1015.24 1015.20 1015.04 1015.08 1015.44 1015.48 1015.56 1015.56 1015.44 1015.72 1016.12 1016.28 1016.40 1016.88 1017.12 1017.20 1017.48 1017.36 1016.92 1016.76 1016.80 1017.00 1017.16 1017.32 1017.68 1018.00 1018.24 1018.16 1017.88 1017.72 1017.76 1017.88 1018.44 1018.84 1019.20 1019.52 1019.56 1019.68 1019.84 1019.92 1020.12 1020.32 1020.48 1020.72 1020.84 1020.80 1020.92 1021.28 1021.48 1021.52 1021.56 1021.60 1021.60 1021.72 1021.88 1021.96 1022.00 1021.92 1021.80 1021.64
1015.76 1015.52 1015.32 1015.16 1015.36 1015.52 1015.64 1016.00 1015.96 1016.04 1016.08 1016.52 1016.56 1016.64 1016.72 1016.80 1017.20 1017.36 1017.44 1017.60 1017.24 1017.16 1017.32 1017.44 1017.52 1017.64 1017.80 1018.08 1018.40 1018.52 1018.56 1018.52 1018.60 1018.48 1018.56 1018.88 1019.24 1019.48 1019.68 1019.84 1019.80 1019.84 1019.96 1020.08 1020.36 1020.64 1020.84 1020.92 1021.04 1021.28 1021.28 1021.52 1021.72 1021.56 1021.60 1021.72 1021.88 1021.96 1022.04 1022.12 1022.12 1022.00 1021.92
1016.20 1016.08 1016.08 1016.36 1016.44 1016.48 1016.56 1016.84 1016.92 1016.80 1017.08 1017.20 1017.12 1017.00 1017.12 1017.20 1017.52 1017.76 1017.96 1017.68 1017.28 1017.56 1017.76 1017.80 1017.92 1018.04 1018.28 1018.40 1018.44 1018.60 1018.88 1019.00 1019.12 1019.24 1019.16 1019.20 1019.28 1019.64 1019.84 1019.96 1019.88 1020.00 1019.96 1020.04 1020.36 1020.64 1020.84 1020.84 1021.00 1021.28 1021.36 1021.64 1021.84 1021.80 1021.72 1021.64 1021.68 1021.88 1022.00 1022.08 1022.12 1022.20 1022.16
1016.80 1016.56 1016.64 1016.68 1016.76 1016.64 1016.84 1017.24 1017.64 1017.76 1017.84 1017.64 1017.40 1017.44 1017.48 1017.60 1017.72 1018.16 1018.08 1017.60 1017.56 1017.56 1017.76 1017.92 1018.20 1018.40 1018.48 1018.40 1018.44 1018.60 1018.76 1019.00 1019.24 1019.40 1019.52 1019.64 1019.76 1019.84 1019.80 1019.96 1020.08 1020.16 1020.12 1020.16 1020.36 1020.56 1020.84 1021.00 1021.20 1021.28 1021.44 1021.68 1021.92 1022.04 1022.00 1021.88 1021.88 1022.00 1021.96 1021.96 1022.04 1022.12 1022.20
1017.52 1017.64 1017.68 1017.60 1017.32 1017.16 1017.28 1017.52 1017.76 1017.96 1018.12 1018.36 1017.80 1017.68 1017.80 1017.88 1017.92 1018.04 1017.92 1017.88 1017.76 1017.92 1018.08 1018.28 1018.40 1018.56 1018.60 1018.76 1018.96 1018.84 1018.68 1019.04 1019.28 1019.56 1020.00 1020.08 1020.04 1020.08 1020.04 1020.16 1020.48 1020.56 1020.48 1020.44 1020.76 1020.92 1020.60 1020.52 1021.00 1021.12 1021.12 1021.44 1021.52 1021.60 1021.56 1021.64 1021.68 1021.84 1022.04 1022.24 1022.04 1021.92 1021.88
1017.84 1018.20 1018.36 1018.00 1017.84 1017.76 1017.88 1018.12 1018.36 1018.52 1018.60 1018.72 1018.36 1018.04 1017.88 1017.92 1018.04 1018.08 1017.92 1017.96 1017.76 1018.00 1018.40 1018.68 1018.72 1018.76 1018.72 1018.56 1018.48 1018.52 1018.64 1019.16 1019.56 1019.52 1019.52 1019.60 1019.72 1019.88 1020.16 1020.36 1020.48 1020.84 1021.40 1021.60 1021.40 1020.92 1020.92 1020.84 1020.68 1020.76 1020.76 1020.88 1021.08 1021.24 1021.40 1021.44 1021.84 1022.48 1022.92 1023.12 1023.04 1022.64 1022.24
1018.28 1018.32 1018.36 1018.48 1018.56 1018.56 1018.84 1018.88 1019.00 1019.00 1018.96 1019.00 1018.72 1018.56 1018.36 1018.12 1017.92 1018.00 1018.24 1018.08 1017.96 1018.36 1018.72 1018.88 1018.84 1018.80 1018.88 1018.84 1018.76 1018.96 1019.12 1019.32 1019.20 1019.24 1019.60 1020.20 1020.84 1021.36 1021.68 1021.44 1020.84 1021.28 1021.88 1022.40 1022.48 1022.24 1021.64 1021.04 1021.32 1021.16 1020.68 1021.24 1021.64 1021.52 1021.32 1021.64 1022.60 1023.36 1024.04 1024.28 1024.48 1024.00 1023.52
1018.44 1018.52 1018.64 1018.60 1018.52 1019.20 1019.44 1019.36 1019.24 1019.32 1019.32 1019.20 1019.00 1019.12 1019.08 1018.72 1018.52 1018.32 1018.16 1018.44 1018.48 1018.52 1018.96 1019.04 1019.04 1019.08 1019.16 1019.16 1019.32 1019.44 1019.40 1019.12 1019.12 1019.52 1019.72 1020.12 1020.84 1021.40 1021.96 1022.56 1022.64 1022.36 1022.00 1022.48 1023.32 1023.08 1022.64 1022.20 1022.48 1022.44 1021.76 1021.92 1022.60 1022.72 1022.44 1022.76 1023.56 1024.04 1024.00 1024.24 1024.28 1024.24 1024.24
1018.64 1018.76 1018.92 1018.96 1018.96 1019.00 1019.60 1019.84 1019.56 1019.56 1019.60 1019.60 1019.48 1019.52 1019.56 1019.56 1019.36 1019.20 1019.00 1018.96 1018.88 1018.96 1019.08 1019.16 1019.24 1019.20 1019.28 1019.56 1019.68 1019.56 1019.24 1019.16 1019.64 1019.92 1020.04 1020.40 1020.96 1021.44 1021.92 1022.40 1023.00 1023.48 1023.60 1023.40 1023.20 1022.92 1022.80 1022.80 1022.68 1022.48 1022.48 1022.44 1022.76 1023.56 1023.84 1023.96 1024.00 1023.92 1024.24 1024.36 1024.36 1024.36 1024.36
1018.80 1018.84 1018.96 1019.16 1019.48 1019.44 1019.32 1020.24 1020.32 1019.96 1019.76 1019.72 1019.72 1019.64 1019.56 1019.68 1019.68 1019.60 1019.40 1019.44 1019.36 1019.20 1019.32 1019.36 1019.48 1019.48 1019.36 1019.52 1019.84 1019.88 1019.68 1019.64 1019.88 1020.08 1020.52 1020.88 1021.08 1021.28 1021.60 1022.04 1022.64 1023.16 1023.76 1023.84 1023.48 1023.24 1023.16 1023.24 1023.24 1023.28 1023.28 1023.24 1023.16 1023.12 1023.52 1023.96 1024.16 1024.32 1024.36 1024.48 1024.48 1024.40 1024.44
Wind_Speed
17 17 16 14 15 15 16 15 15 14 14 14 13 13 13 11 11 11 12 13 13 13 12 11 11 11 11 9 8 8 7 7 7 6 6 6 5 5 6 6 6 5 5 5 5 5 5 4 4 5 5 5 5 4 4 3 3 3 2 2 3 1 1
17 17 16 16 16 16 17 16 15 14 14 13 13 13 12 12 11 11 12 13 13 13 13 12 11 10 11 9 8 8 7 7 7 6 6 5 4 3 4 5 5 5 3 3 4 4 5 5 5 5 5 5 5 5 5 4 4 3 3 4 3 2 2
17 16 16 15 16 15 16 16 16 14 14 13 14 14 13 12 12 12 12 13 14 13 13 13 12 11 10 10 9 9 9 8 8 7 7 7 8 8 6 5 4 5 6 5 4 5 5 5 5 5 5 5 6 5 4 4 4 4 3 3 4 4 3
14 15 16 16 16 16 16 15 15 14 14 14 14 14 13 13 12 11 11 13 14 14 14 13 13 12 10 10 10 10 10 9 8 8 8 7 8 7 7 6 5 5 5 5 6 4 5 5 6 5 6 5 4 6 6 5 5 5 5 4 4 4 3
17 17 16 15 15 15 16 15 15 14 14 14 13 13 13 14 13 13 13 13 14 14 15 14 13 12 10 10 9 9 10 10 9 8 7 6 6 7 6 7 7 6 5 6 5 6 3 5 5 6 6 5 6 5 5 6 5 5 4 5 5 4 5
17 16 15 14 13 14 16 17 18 17 15 15 15 14 14 16 14 15 14 13 13 14 14 13 14 13 12 11 10 9 9 10 9 8 8 7 6 7 7 7 7 7 7 6 7 6 6 5 5 6 7 7 7 7 7 7 6 6 6 5 5 5 5
12 15 15 14 14 11 13 15 17 16 15 14 13 13 13 14 15 14 13 14 14 14 15 14 13 14 12 11 11 11 11 11 10 10 9 9 9 8 8 7 6 7 6 7 5 6 7 6 6 6 6 6 6 6 5 5 5 5 5 5 5 5 4
16 14 15 15 14 10 10 10 14 15 14 13 13 13 14 13 13 14 14 12 12 12 13 14 13 11 11 10 11 12 12 12 11 10 10 10 10 10 8 8 8 7 7 8 7 6 7 7 7 6 6 6 6 5 5 5 4 6 5 5 5 6 5
15 13 11 10 15 14 12 9 10 13 14 14 14 14 14 13 13 12 14 13 12 11 11 12 12 11 11 11 11 12 11 11 11 11 11 11 10 11 10 9 9 9 9 8 8 7 6 7 7 7 7 6 5 5 5 5 5 6 5 5 5 5 6
13 14 14 13 12 16 14 14 13 8 10 9 11 12 14 13 12 12 9 12 12 12 12 12 11 10 10 10 11 12 12 11 11 12 12 11 10 12 11 10 8 7 9 9 8 8 7 7 8 7 7 6 5 6 6 5 6 6 6 5 5 6 5
10 11 11 12 12 13 14 13 12 10 11 10 9 11 11 12 11 12 11 10 12 11 11 10 9 10 11 11 11 12 12 13 12 12 12 12 11 11 11 10 11 9 8 6 9 9 7 8 7 7 7 7 7 7 7 7 7 6 7 7 6 7 7
12 10 8 11 9 9 12 10 8 6 7 8 8 8 8 7 8 9 11 10 10 11 11 11 9 10 10 11 11 11 11 11 12 12 13 13 13 13 12 10 7 9 9 7 9 7 10 9 8 7 8 7 8 7 7 7 7 7 6 8 8 7 7
12 11 10 11 11 9 8 8 9 9 8 7 6 6 7 8 8 7 9 11 11 10 10 11 10 11 11 12 11 10 11 10 11 11 12 12 11 11 11 11 12 10 8 9 11 8 8 9 9 8 8 8 8 8 7 8 8 6 7 8 8 7 6
11 11 13 12 11 11 10 9 9 9 9 8 7 4 3 5 8 9 10 10 10 9 9 8 10 11 11 11 11 11 11 10 11 11 10 9 8 9 10 10 11 11 11 10 9 8 8 8 9 9 8 9 9 8 8 7 7 7 9 9 6 3 6
11 11 11 12 13 12 13 11 10 11 11 10 10 8 5 4 5 6 7 8 8 8 9 9 10 10 10 10 10 10 10 10 10 9 8 9 9 10 9 8 7 7 8 8 9 9 10 9 7 8 9 8 8 9 9 8 9 8 6 6 6 3 1
10 12 11 12 13 13 12 12 12 10 10 10 10 11 10 8 7 8 8 7 7 7 7 8 9 10 10 10 10 9 10 10 9 8 8 9 8 8 9 8 8 8 8 7 7 7 6 6 10 9 7 8 6 7 8 8 3 6 4 3 4 4 3
9 10 11 11 11 12 11 11 12 12 12 11 10 10 9 8 8 8 8 8 7 7 6 7 8 8 9 9 9 9 10 9 9 9 10 9 9 8 8 8 8 8 6 7 8 8 7 6 7 9 8 9 9 10 8 2 7 7 7 6 5 3 4
9 8 9 8 8 8 9 10 11 11 11 11 10 10 10 9 9 8 8 9 9 7 6 6 5 7 8 8 8 9 9 8 8 8 8 9 9 9 7 7 6 7 7 9 10 8 8 9 9 7 9 8 8 8 2 8 8 9 9 8 7 5 3
10 9 8 7 7 7 6 6 6 7 7 7 7 5 4 6 7 7 6 7 8 9 10 9 7 6 7 7 8 8 8 8 8 8 7 6 7 7 9 7 6 6 6 7 7 8 9 8 8 9 9 9 8 7 5 7 12 10 10 8 7 6 4
11 10 8 7 8 9 7 6 5 6 5 5 6 6 5 3 5 4 3 4 6 9 10 10 11 10 9 8 8 7 8 7 6 8 6 6 6 7 5 5 6 7 6 6 6 7 7 9 9 8 8 8 8 3 9 8 10 10 9 7 7 6 5
10 11 10 8 7 8 8 8 6 6 5 5 3 2 2 3 2 3 2 2 4 7 8 9 9 9 8 8 8 7 7 6 6 6 7 8 6 5 4 4 5 5 4 5 6 7 7 8 9 8 8 8 8 6 8 7 10 10 9 10 8 7 5
11 13 12 8 9 8 9 8 7 6 6 7 7 6 5 4 2 1 3 4 5 5 6 7 7 5 5 6 5 4 4 3 4 5 1 3 4 5 5 4 3 4 2 1 3 4 6 7 8 8 8 7 8 8 8 8 12 9 10 10 8 8 5
8 14 13 10 8 8 6 7 7 7 6 4 5 6 7 6 4 3 3 3 4 3 2 3 4 4 3 3 4 2 4 5 4 5 8 8 7 7 7 6 4 2 1 1 1 2 3 5 4 11 10 6 8 10 9 9 11 11 11 10 10 7 4
11 12 11 11 9 9 7 6 7 6 5 6 5 5 4 7 6 5 5 5 5 5 4 3 3 4 5 5 6 6 5 5 6 6 7 8 8 6 5 4 4 4 3 3 2 3 4 8 6 5 3 5 8 9 9 9 11 13 12 12 11 8 5
10 9 10 10 9 9 8 7 6 7 6 7 7 5 2 5 6 7 6 6 6 6 6 6 5 5 6 6 6 7 8 9 7 6 6 5 5 4 5 6 5 3 4 4 4 6 7 9 7 6 6 9 11 14 12 9 10 14 13 13 13 10 5
10 10 11 10 9 9 9 8 8 7 7 7 7 6 5 5 6 8 8 8 9 10 9 8 7 8 8 8 8 8 9 10 10 8 7 8 8 8 7 6 6 6 7 7 6 7 5 7 7 7 7 8 9 9 9 9 9 12 14 15 15 15 8
10 11 12 11 10 9 8 9 9 9 9 8 6 6 7 5 6 7 8 9 10 10 9 9 8 8 8 8 9 10 10 10 10 10 10 10 9 8 8 7 8 8 7 7 7 6 6 9 8 8 7 8 7 8 9 8 9 11 15 15 15 17 13
11 12 11 10 9 8 9 10 10 10 9 9 8 8 7 6 7 7 9 9 10 9 9 9 8 8 8 9 9 9 10 11 12 11 9 10 10 10 10 9 9 9 9 7 6 7 8 8 8 9 9 8 8 9 8 11 14 8 12 14 14 14 15
10 9 9 9 9 9 9 9 9 9 9 8 9 8 7 7 9 8 9 10 9 8 7 8 9 9 10 10 9 9 8 7 10 10 10 10 10 10 10 8 8 7 8 8 8 7 8 8 8 9 8 7 6 6 7 7 8 10 9 11 12 13 14
10 9 8 9 10 9 10 9 8 8 9 9 7 8 7 6 7 7 8 8 7 8 8 9 9 10 10 9 9 9 9 10 9 10 10 10 9 8 9 8 7 6 6 6 7 6 7 5 6 6 7 8 7 6 6 6 5 6 8 7 10 12 13
8 7 8 9 10 10 9 9 8 8 8 7 7 7 7 7 8 8 8 6 6 8 8 8 9 9 9 8 8 9 9 8 8 8 9 8 8 8 8 8 7 7 7 7 7 6 6 7 7 6 7 6 6 5 5 5 5 4 4 5 5 8 8
8 7 9 9 8 9 10 10 10 9 8 6 7 6 6 7 7 8 7 6 6 7 7 8 9 8 8 8 8 9 9 9 9 9 9 9 8 8 7 7 6 6 6 6 6 6 6 5 5 6 6 6 5 5 4 3 3 3 3 1 3 4 5
10 9 9 9 8 9 8 7 7 8 7 7 6 6 5 6 5 5 4 5 5 7 6 6 7 7 8 8 8 6 7 7 8 8 8 6 7 6 5 5 4 4 5 6 4 3 0 6 6 6 7 6 5 6 5 4 4 3 4 4 4 4 4
12 11 8 8 8 9 9 9 9 8 7 6 4 5 5 5 5 3 2 3 3 5 5 5 5 5 5 6 6 6 7 7 8 7 7 6 6 5 5 6 5 6 7 7 6 2 2 2 2 3 5 5 5 5 4 4 4 6 5 6 6 6 6
11 11 11 11 11 9 8 8 9 9 8 6 5 4 4 4 4 5 2 1 3 6 4 4 3 4 6 5 4 5 5 6 6 6 6 7 9 10 9 8 5 7 8 8 6 6 5 3 7 7 5 9 8 4 4 6 7 5 5 4 5 5 6
12 13 12 11 12 11 9 9 9 9 9 7 6 5 4 5 5 5 3 3 3 1 4 4 4 5 5 4 4 5 5 5 5 5 5 6 7 9 10 15 15 11 7 6 7 13 13 12 6 4 5 8 8 7 7 7 5 7 8 6 6 6 6
13 12 12 10 11 12 10 7 9 9 9 8 6 6 6 6 6 6 5 3 2 1 2 2 4 4 5 4 4 4 3 4 5 5 5 6 7 7 8 7 9 13 13 11 8 12 14 14 15 17 16 8 7 9 13 11 10 10 6 3 4 6 7
12 12 13 10 8 10 14 9 5 7 9 7 6 5 4 5 5 2 3 3 3 1 2 4 3 4 4 5 4 2 1 3 4 5 6 5 4 5 6 6 7 7 9 11 12 12 14 14 15 15 15 14 11 7 6 9 9 5 3 2 4 7 7
Wind_Direction
187 183 178 179 172 180 175 178 181 180 170 174 175 179 177 174 169 162 163 166 169 167 170 171 175 173 175 175 177 176 180 172 172 177 178 180 178 168 175 178 176 190 180 186 184 182 182 180 175 184 169 179 181 170 178 178 193 204 196 205 236 268 241
186 183 178 180 175 181 176 178 181 180 175 172 176 181 179 178 169 168 165 167 171 169 170 173 177 178 175 176 175 176 184 180 176 174 183 167 173 171 181 177 180 174 200 181 168 177 167 180 182 180 173 177 185 175 176 187 198 217 202 188 227 244 225
186 181 177 179 177 181 176 177 182 181 176 176 178 182 183 178 174 175 165 169 171 171 174 173 180 181 179 176 175 177 183 187 177 179 188 178 182 185 183 173 200 179 187 182 185 170 177 181 177 179 196 187 183 179 190 187 193 203 205 205 226 212 224
184 179 174 181 179 179 179 174 180 183 180 184 181 183 181 175 180 176 175 173 172 174 175 177 180 182 184 181 179 179 184 191 191 188 193 189 176 193 174 184 197 194 178 190 179 202 166 175 174 181 197 194 195 186 192 196 195 194 199 201 229 212 227
187 179 173 177 179 181 176 176 182 191 185 185 180 184 181 176 185 182 182 180 178 179 179 178 180 181 184 186 186 181 185 186 193 190 199 194 178 188 188 193 181 206 176 191 169 181 177 179 178 181 183 205 195 194 195 193 205 194 201 205 228 221 221
180 173 170 172 175 180 179 179 181 190 191 184 183 186 184 183 187 187 186 181 184 179 179 182 181 175 185 185 191 185 183 186 188 191 196 183 192 196 188 207 184 194 182 200 174 183 184 200 202 184 191 193 210 198 196 193 202 198 198 207 227 232 237
187 171 174 179 173 172 180 177 180 186 191 186 182 187 189 187 188 187 186 181 188 178 180 183 186 176 185 184 185 184 189 189 189 190 193 193 188 206 185 197 206 190 195 185 199 183 183 198 206 200 199 211 205 207 197 203 206 206 203 205 214 232 244
191 181 180 178 169 162 171 174 185 186 190 187 183 184 194 189 188 186 186 174 190 179 187 182 184 182 179 191 183 189 189 191 190 193 194 198 186 203 188 190 200 193 206 185 193 199 195 190 196 200 195 210 199 211 207 192 202 218 206 208 212 226 216
181 181 175 172 174 169 166 178 204 195 189 192 183 184 192 194 190 189 181 171 189 183 192 191 181 183 182 188 186 192 190 191 191 195 201 202 194 201 195 192 194 192 202 202 186 192 209 184 206 185 197 205 199 200 213 193 208 220 225 221 218 229 235
173 176 175 176 197 184 179 183 191 203 189 197 188 187 195 196 193 183 180 172 182 187 186 199 179 178 180 184 193 194 192 192 196 196 198 204 206 204 204 194 183 195 199 205 198 179 197 199 198 178 192 205 194 192 210 204 215 224 217 224 226 232 234
165 170 173 182 186 186 178 182 179 190 196 189 186 187 200 200 198 182 177 174 181 187 187 207 177 178 178 186 195 197 198 196 199 197 198 206 204 211 213 201 188 193 198 206 236 173 190 190 206 184 186 206 200 200 206 208 213 220 226 219 218 224 226
164 161 169 186 163 168 169 154 135 134 157 167 182 186 195 197 198 194 172 181 183 183 190 207 176 179 183 191 196 195 205 203 204 202 200 206 208 203 204 209 187 192 210 208 221 203 189 179 200 191 195 212 209 202 202 209 212 214 231 235 221 217 228
162 162 168 175 165 158 144 139 133 124 116 131 143 166 186 182 189 188 176 186 188 184 187 194 182 182 186 191 198 193 199 204 211 210 204 204 216 211 202 198 198 198 171 205 225 209 212 187 187 197 201 203 217 211 196 208 213 205 218 232 238 246 231
158 169 172 174 176 176 171 159 162 154 145 140 123 111 96 167 176 175 178 182 177 179 183 186 185 185 187 192 192 195 199 198 206 214 214 206 212 231 221 207 202 197 194 198 207 217 215 223 187 194 202 202 213 214 212 194 222 207 219 229 219 190 286
176 177 180 179 181 182 183 178 172 175 173 174 170 177 182 165 171 179 177 185 187 190 187 186 187 188 193 197 199 191 197 197 201 209 210 210 203 215 232 228 220 207 202 200 209 208 207 211 242 216 203 191 205 216 223 208 210 213 216 236 233 229 159
173 171 183 186 186 184 185 188 182 179 172 176 179 173 175 184 180 178 183 184 190 192 188 191 193 192 195 198 200 194 194 198 197 199 209 213 203 208 216 224 216 215 210 210 214 230 232 214 208 227 222 207 174 234 228 219 204 50 354 219 219 207 233
192 176 167 182 180 182 187 187 190 191 188 183 180 176 178 178 182 185 186 186 191 195 187 194 196 198 198 201 202 196 191 193 196 194 200 201 206 204 212 218 215 222 205 208 216 216 220 225 226 226 223 229 209 208 224 205 51 20 50 45 67 240 210
173 162 159 159 160 165 174 182 188 191 193 194 196 193 189 189 195 195 193 189 197 202 208 192 194 210 204 199 197 193 188 187 181 182 187 197 195 197 201 201 212 205 206 207 202 206 214 210 218 222 226 224 229 229 193 75 39 29 26 27 17 21 284
153 137 124 127 113 137 149 151 156 161 164 173 183 173 169 186 195 201 200 206 202 200 207 196 184 192 212 214 204 197 191 193 185 172 178 190 185 176 184 182 178 178 181 192 202 202 209 215 211 211 223 234 230 232 106 78 34 13 18 17 12 15 312
134 133 140 138 136 128 111 105 114 131 145 136 157 162 166 162 219 218 215 231 232 215 208 206 203 200 198 203 211 208 205 191 205 187 188 199 180 213 175 176 186 196 199 201 202 213 210 213 213 213 212 221 227 122 74 63 24 22 9 8 3 6 338
137 124 104 99 110 113 100 105 120 136 157 180 173 129 189 204 179 91 147 227 228 220 218 213 206 206 204 203 203 206 220 188 212 243 220 207 194 194 187 149 196 174 185 196 205 204 209 219 210 209 204 205 210 142 91 59 28 23 10 7 355 350 302
144 129 122 119 101 102 122 133 134 131 118 126 153 150 146 119 120 212 229 231 225 235 228 222 214 213 206 205 192 199 177 214 197 207 242 242 201 188 176 181 163 168 168 223 249 254 223 213 219 206 202 197 191 132 87 64 32 19 18 4 349 329 277
121 103 108 118 126 123 111 119 118 109 130 144 129 135 139 133 130 128 154 190 208 213 190 204 199 181 137 106 103 80 150 168 217 206 192 203 207 199 191 182 164 130 119 100 346 288 291 314 359 17 359 359 69 81 82 63 30 22 21 8 355 319 280
100 106 113 117 117 123 130 127 128 139 124 110 89 70 93 109 117 126 133 144 162 166 147 137 188 187 156 145 146 121 116 121 161 164 171 172 180 176 163 129 127 158 133 111 100 46 65 77 51 93 105 58 70 80 81 66 39 25 18 13 3 338 297
95 107 111 116 131 140 143 142 136 130 124 130 133 126 90 89 115 117 112 116 127 131 132 133 127 137 149 156 156 148 138 143 132 108 98 112 123 130 140 136 138 101 73 52 47 58 81 103 95 74 58 57 63 62 68 62 42 26 17 18 13 359 310
101 106 107 111 112 106 105 109 121 125 115 96 88 105 94 80 104 105 112 109 102 97 95 95 96 101 98 111 120 125 133 138 132 117 110 106 96 94 94 101 97 98 82 61 61 69 63 92 99 86 69 69 67 60 55 58 49 29 20 24 18 9 353
106 111 107 106 107 117 129 125 109 101 101 105 106 93 90 97 106 109 106 101 92 94 95 96 92 92 103 113 116 118 121 125 124 115 100 84 84 81 80 70 81 78 78 71 62 64 67 76 81 74 64 61 63 70 61 52 52 38 27 26 24 20 9
112 106 108 111 117 118 110 105 110 111 109 108 108 100 92 97 93 100 101 96 98 100 100 95 87 88 79 86 94 105 104 100 102 98 100 102 97 98 93 92 90 86 81 76 69 66 69 76 77 77 74 75 70 67 65 53 52 48 37 30 27 27 25
108 114 112 111 107 107 114 108 104 102 103 95 86 83 88 96 100 100 95 88 85 80 78 91 101 90 77 68 59 42 39 68 94 97 99 100 102 109 111 108 106 106 105 101 88 79 79 77 81 83 81 76 67 77 73 68 63 51 51 38 33 27 26
88 110 113 108 112 110 95 92 93 88 81 61 74 73 69 80 88 90 89 94 105 100 92 81 80 85 86 87 82 85 86 84 78 92 103 107 110 112 110 111 113 113 108 106 101 105 102 103 102 106 103 94 96 94 98 102 92 71 63 54 42 30 25
124 119 118 113 106 94 99 93 94 98 95 78 71 73 72 78 89 88 83 86 100 104 105 106 106 100 97 91 96 99 90 85 90 86 84 85 93 102 107 108 110 109 113 107 108 111 113 111 110 108 101 97 89 87 93 94 91 77 86 86 81 56 32
91 104 114 125 119 118 111 96 80 69 77 85 88 77 72 75 76 82 85 98 99 103 110 116 118 115 115 122 119 114 117 108 96 89 86 86 78 78 86 98 104 110 119 126 122 122 125 123 120 124 119 117 113 108 103 111 122 135 87 48 134 111 106
92 75 80 84 96 103 96 99 96 91 80 55 63 84 87 75 77 76 82 84 101 98 103 116 127 135 135 127 123 124 111 114 118 118 113 113 110 97 76 77 82 73 61 73 82 36 194 137 149 146 144 139 151 141 130 129 119 80 50 8 355 19 32
101 96 80 92 92 75 82 81 81 79 75 76 58 64 78 104 106 121 129 137 158 113 128 137 146 133 135 133 138 141 136 122 129 136 128 116 85 85 108 127 120 67 47 28 9 20 61 101 138 127 142 151 141 150 136 135 85 57 40 20 4 2 13
117 116 114 94 79 77 85 91 87 83 86 79 69 64 77 84 101 94 87 329 101 129 160 159 172 143 145 144 141 118 126 148 156 126 114 89 77 63 39 20 53 84 71 41 25 11 355 26 40 6 36 45 30 18 177 122 92 76 47 38 12 7 8
119 113 105 105 102 89 78 74 84 85 73 67 72 74 71 81 56 35 63 56 1 131 171 169 175 161 150 141 136 147 171 164 123 106 123 122 107 85 67 52 45 30 52 74 55 55 48 59 61 14 26 69 50 35 37 74 91 85 65 28 0 347 336
125 118 112 112 111 114 99 85 88 91 86 79 67 69 67 52 43 31 44 14 104 244 134 197 187 181 147 150 168 186 202 131 130 136 109 107 116 100 98 92 60 46 45 59 61 65 63 58 51 45 40 43 88 65 66 79 79 71 61 30 348 317 317
125 122 123 119 115 119 115 114 75 77 84 80 74 66 66 85 87 61 78 48 1 79 172 194 196 200 176 155 119 57 98 137 127 134 121 115 119 132 136 122 103 84 49 39 42 55 66 67 62 57 53 46 44 64 82 62 66 68 59 356 293 289 301